ProjectID,Date,Electric Generation,Electric Utility Import,Facility Electric Load
,YYYY-MM-DD,kW,kW,kW
475,2009-01-01,0.0,120.45833333333333,120.45833333333333
475,2009-01-02,0.0,163.875,163.875
475,2009-01-03,0.0,216.95833333333334,216.95833333333334
475,2009-01-04,0.0,232.375,232.375
475,2009-01-05,0.0,194.375,194.375
475,2009-01-06,0.0,168.83333333333334,168.83333333333334
475,2009-01-07,0.0,213.58333333333334,213.58333333333334
475,2009-01-08,0.0,207.125,207.125
475,2009-01-09,0.0,157.0,157.0
475,2009-01-10,0.0,252.04166666666666,252.04166666666666
475,2009-01-11,0.0,206.33333333333334,206.33333333333334
475,2009-01-12,0.0,249.0,249.0
475,2009-01-13,0.0,194.08333333333334,194.08333333333334
475,2009-01-14,0.0,179.29166666666666,179.29166666666666
475,2009-01-15,0.0,149.33333333333334,149.33333333333334
475,2009-01-16,0.0,108.83333333333333,108.83333333333333
475,2009-01-17,0.0,260.7916666666667,260.7916666666667
475,2009-01-18,0.0,174.875,174.875
475,2009-01-19,0.0,188.375,188.375
475,2009-01-20,0.0,175.625,175.625
475,2009-01-21,0.0,152.20833333333334,152.20833333333334
475,2009-01-22,25.541666666666668,149.83333333333334,175.375
475,2009-01-23,1.9583333333333333,105.33333333333333,107.29166666666666
475,2009-01-24,0.0,278.125,278.125
475,2009-01-25,0.0,164.41666666666666,164.41666666666666
475,2009-01-26,0.0,102.5,102.5
475,2009-01-27,0.0,114.66666666666667,114.66666666666667
475,2009-01-28,9.0,100.70833333333333,109.70833333333333
475,2009-01-29,30.125,139.45833333333334,169.58333333333334
475,2009-01-30,0.0,98.625,98.625
475,2009-01-31,0.0,164.625,164.625
475,2009-02-01,0.0,,0.0
475,2009-02-02,0.0,,0.0
475,2009-02-03,0.0,,0.0
475,2009-02-04,0.0,,0.0
475,2009-02-05,0.0,,0.0
475,2009-02-06,0.0,,0.0
475,2009-02-07,0.0,,0.0
475,2009-02-08,0.0,,0.0
475,2009-02-09,0.0,160.0,160.0
475,2009-02-10,96.79166666666667,220.20833333333334,317.0
475,2009-02-11,108.0,188.54166666666666,296.54166666666663
475,2009-02-12,30.0,139.79166666666666,169.79166666666666
475,2009-02-13,45.208333333333336,147.45833333333334,192.66666666666669
475,2009-02-14,20.166666666666668,127.41666666666667,147.58333333333334
475,2009-02-15,99.875,96.83333333333333,196.70833333333331
475,2009-02-16,93.29166666666667,109.5,202.79166666666669
475,2009-02-17,72.0,129.58333333333334,201.58333333333334
475,2009-02-18,0.0,51.25,51.25
475,2009-02-19,43.041666666666664,187.70833333333334,230.75
475,2009-02-20,4.333333333333333,109.0,113.33333333333333
475,2009-02-21,1.1666666666666667,96.375,97.54166666666667
475,2009-02-22,0.0,145.83333333333334,145.83333333333334
475,2009-02-23,0.0,162.58333333333334,162.58333333333334
475,2009-02-24,62.208333333333336,119.79166666666667,182.0
475,2009-02-25,138.625,114.375,253.0
475,2009-02-26,82.04166666666667,135.3913043478261,217.43297101449275
475,2009-02-27,1.375,112.0,113.375
475,2009-02-28,44.041666666666664,90.66666666666667,134.70833333333334
475,2009-03-01,70.41666666666667,201.04166666666666,271.4583333333333
475,2009-03-02,47.958333333333336,149.78571428571428,197.74404761904762
475,2009-03-03,153.375,105.33333333333333,258.7083333333333
475,2009-03-04,84.83333333333333,139.95833333333334,224.79166666666669
475,2009-03-05,140.16666666666666,124.125,264.29166666666663
475,2009-03-06,97.08333333333333,88.92857142857143,186.01190476190476
475,2009-03-07,82.66666666666667,145.0,227.66666666666669
475,2009-03-08,123.04166666666667,133.29166666666666,256.3333333333333
475,2009-03-09,101.95833333333333,159.33333333333334,261.2916666666667
475,2009-03-10,152.08333333333334,105.66666666666667,257.75
475,2009-03-11,192.91666666666666,95.125,288.04166666666663
475,2009-03-12,126.58333333333333,111.79166666666667,238.375
475,2009-03-13,157.95833333333334,90.95833333333333,248.91666666666669
475,2009-03-14,97.125,144.0,241.125
475,2009-03-15,126.54166666666667,108.125,234.66666666666669
475,2009-03-16,158.79166666666666,92.20833333333333,251.0
475,2009-03-17,140.125,109.70833333333333,249.83333333333331
475,2009-03-18,71.70833333333333,135.25,206.95833333333331
475,2009-03-19,0.16666666666666666,212.25,212.41666666666666
475,2009-03-20,65.41666666666667,139.79166666666666,205.20833333333331
475,2009-03-21,126.41666666666667,123.54166666666667,249.95833333333334
475,2009-03-22,0.20833333333333334,237.25,237.45833333333334
475,2009-03-23,0.0,233.20833333333334,233.20833333333334
475,2009-03-24,0.5416666666666666,208.5,209.04166666666666
475,2009-03-25,112.79166666666667,134.20833333333334,247.0
475,2009-03-26,124.16666666666667,70.91666666666667,195.08333333333334
475,2009-03-27,55.791666666666664,99.29166666666667,155.08333333333334
475,2009-03-28,31.333333333333332,155.29166666666666,186.625
475,2009-03-29,0.0,217.45454545454547,217.45454545454547
475,2009-03-30,0.0,,0.0
475,2009-03-31,116.25,42.07692307692308,158.3269230769231
475,2009-04-01,151.58333333333334,43.083333333333336,194.66666666666669
475,2009-04-02,52.916666666666664,155.08333333333334,208.0
475,2009-04-03,0.0,199.33333333333334,199.33333333333334
475,2009-04-04,0.0,217.16666666666666,217.16666666666666
475,2009-04-05,0.0,260.9583333333333,260.9583333333333
475,2009-04-06,0.0,249.04166666666666,249.04166666666666
475,2009-04-07,52.291666666666664,165.33333333333334,217.625
475,2009-04-08,106.08333333333333,130.66666666666666,236.75
475,2009-04-09,83.08333333333333,151.08333333333334,234.16666666666669
475,2009-04-10,40.833333333333336,232.66666666666666,273.5
475,2009-04-11,0.0,259.0416666666667,259.0416666666667
475,2009-04-12,51.833333333333336,239.45833333333334,291.2916666666667
475,2009-04-13,26.875,249.66666666666666,276.54166666666663
475,2009-04-14,79.66666666666667,167.08333333333334,246.75
475,2009-04-15,97.25,146.79166666666666,244.04166666666666
475,2009-04-16,56.083333333333336,148.95833333333334,205.04166666666669
475,2009-04-17,140.83333333333334,92.5,233.33333333333334
475,2009-04-18,180.54166666666666,61.333333333333336,241.875
475,2009-04-19,150.58333333333334,42.833333333333336,193.41666666666669
475,2009-04-20,145.95833333333334,42.833333333333336,188.79166666666669
475,2009-04-21,165.0,42.583333333333336,207.58333333333334
475,2009-04-22,57.541666666666664,42.18181818181818,99.72348484848484
475,2009-04-23,0.0,,0.0
475,2009-04-24,0.0,,0.0
475,2009-04-25,0.0,,0.0
475,2009-04-26,0.0,,0.0
475,2009-04-27,0.0,,0.0
475,2009-04-28,0.0,,0.0
475,2009-04-29,0.0,,0.0
475,2009-04-30,0.0,,0.0
475,2009-05-01,0.0,,0.0
475,2009-05-02,0.0,,0.0
475,2009-05-03,0.0,,0.0
475,2009-05-04,,,
475,2009-05-05,,,
475,2009-05-06,,,
475,2009-05-07,,,
475,2009-05-08,,,
475,2009-05-09,,,
475,2009-05-10,,,
475,2009-05-11,,,
475,2009-05-12,,,
475,2009-05-13,,,
475,2009-05-14,,,
475,2009-05-15,,,
475,2009-05-16,,,
475,2009-05-17,,,
475,2009-05-18,,,
475,2009-05-19,,,
475,2009-05-20,,,
475,2009-05-21,,,
475,2009-05-22,,,
475,2009-05-23,,,
475,2009-05-24,,,
475,2009-05-25,,,
475,2009-05-26,,,
475,2009-05-27,,,
475,2009-05-28,,,
475,2009-05-29,,,
475,2009-05-30,,,
475,2009-05-31,,,
475,2009-06-01,,,
475,2009-06-02,,,
475,2009-06-03,,,
475,2009-06-04,,,
475,2009-06-05,,,
475,2009-06-06,,,
475,2009-06-07,,,
475,2009-06-08,,,
475,2009-06-09,,,
475,2009-06-10,,,
475,2009-06-11,,,
475,2009-06-12,,,
475,2009-06-13,,,
475,2009-06-14,,,
475,2009-06-15,,,
475,2009-06-16,,,
475,2009-06-17,,,
475,2009-06-18,,,
475,2009-06-19,,,
475,2009-06-20,,,
475,2009-06-21,,,
475,2009-06-22,,,
475,2009-06-23,,,
475,2009-06-24,,,
475,2009-06-25,,,
475,2009-06-26,,,
475,2009-06-27,,,
475,2009-06-28,,,
475,2009-06-29,,,
475,2009-06-30,,,
475,2009-07-01,0.0,310.125,310.125
475,2009-07-02,0.0,295.4583333333333,295.4583333333333
475,2009-07-03,0.0,269.9583333333333,269.9583333333333
475,2009-07-04,0.0,274.4583333333333,274.4583333333333
475,2009-07-05,0.0,265.875,265.875
475,2009-07-06,0.0,283.7916666666667,283.7916666666667
475,2009-07-07,0.0,272.5833333333333,272.5833333333333
475,2009-07-08,0.0,264.4166666666667,264.4166666666667
475,2009-07-09,0.0,296.25,296.25
475,2009-07-10,0.0,312.8333333333333,312.8333333333333
475,2009-07-11,0.0,206.33333333333334,206.33333333333334
475,2009-07-12,0.0,263.0833333333333,263.0833333333333
475,2009-07-13,0.0,267.4583333333333,267.4583333333333
475,2009-07-14,0.0,263.3333333333333,263.3333333333333
475,2009-07-15,0.0,285.7083333333333,285.7083333333333
475,2009-07-16,0.0,316.875,316.875
475,2009-07-17,0.0,301.8333333333333,301.8333333333333
475,2009-07-18,0.0,292.6666666666667,292.6666666666667
475,2009-07-19,0.0,274.125,274.125
475,2009-07-20,0.0,301.2083333333333,301.2083333333333
475,2009-07-21,0.0,305.4166666666667,305.4166666666667
475,2009-07-22,31.708333333333332,291.1666666666667,322.875
475,2009-07-23,1.9583333333333333,329.9583333333333,331.91666666666663
475,2009-07-24,0.0,304.2083333333333,304.2083333333333
475,2009-07-25,0.0,305.2916666666667,305.2916666666667
475,2009-07-26,0.0,322.5416666666667,322.5416666666667
475,2009-07-27,0.0,330.4166666666667,330.4166666666667
475,2009-07-28,10.625,310.4166666666667,321.0416666666667
475,2009-07-29,30.291666666666668,328.1666666666667,358.45833333333337
475,2009-07-30,0.0,338.2083333333333,338.2083333333333
475,2009-07-31,0.0,322.25,322.25
475,2009-08-01,0.0,,0.0
475,2009-08-02,0.0,,0.0
475,2009-08-03,0.0,,0.0
475,2009-08-04,0.0,,0.0
475,2009-08-05,0.0,,0.0
475,2009-08-06,0.0,,0.0
475,2009-08-07,0.0,,0.0
475,2009-08-08,0.0,,0.0
475,2009-08-09,0.0,,0.0
475,2009-08-10,0.0,233.66666666666666,233.66666666666666
475,2009-08-11,126.625,222.95833333333334,349.58333333333337
475,2009-08-12,54.375,273.6666666666667,328.0416666666667
475,2009-08-13,42.5,292.375,334.875
475,2009-08-14,43.25,216.375,259.625
475,2009-08-15,136.0,110.29166666666667,246.29166666666669
475,2009-08-16,124.33333333333333,109.79166666666667,234.125
475,2009-08-17,134.04166666666666,155.79166666666666,289.8333333333333
475,2009-08-18,0.0,432.1666666666667,432.1666666666667
475,2009-08-19,44.458333333333336,292.0,336.4583333333333
475,2009-08-20,4.625,381.0,385.625
475,2009-08-21,1.1666666666666667,392.9583333333333,394.125
475,2009-08-22,0.0,356.75,356.75
475,2009-08-23,0.0,329.5833333333333,329.5833333333333
475,2009-08-24,87.625,246.25,333.875
475,2009-08-25,165.70833333333334,128.29166666666666,294.0
475,2009-08-26,127.54166666666667,179.125,306.6666666666667
475,2009-08-27,0.0,,0.0
475,2009-08-28,0.0,,0.0
475,2009-08-29,0.0,,0.0
475,2009-08-30,0.0,,0.0
475,2009-08-31,1.5833333333333333,117.0,118.58333333333333
475,2009-09-01,111.70833333333333,159.33333333333334,271.0416666666667
475,2009-09-02,154.75,122.66666666666667,277.4166666666667
475,2009-09-03,96.29166666666667,88.0,184.29166666666669
475,2009-09-04,89.125,144.23529411764707,233.36029411764707
475,2009-09-05,0.0,135.875,135.875
475,2009-09-06,0.0,157.83333333333334,157.83333333333334
475,2009-09-07,0.0,134.33333333333334,134.33333333333334
475,2009-09-08,5.708333333333333,94.70833333333333,100.41666666666666
475,2009-09-09,182.5,112.04166666666667,294.5416666666667
475,2009-09-10,183.04166666666666,90.08333333333333,273.125
475,2009-09-11,98.375,160.20833333333334,258.58333333333337
475,2009-09-12,161.33333333333334,108.16666666666667,269.5
475,2009-09-13,184.91666666666666,92.375,277.29166666666663
475,2009-09-14,165.29166666666666,109.45833333333333,274.75
475,2009-09-15,84.54166666666667,196.625,281.1666666666667
475,2009-09-16,1.2083333333333333,253.75,254.95833333333334
475,2009-09-17,97.33333333333333,134.5,231.83333333333331
475,2009-09-18,124.83333333333333,128.70833333333334,253.54166666666669
475,2009-09-19,0.0,236.33333333333334,236.33333333333334
475,2009-09-20,0.0,246.08333333333334,246.08333333333334
475,2009-09-21,1.2916666666666667,270.6666666666667,271.95833333333337
475,2009-09-22,123.25,153.58333333333334,276.83333333333337
475,2009-09-23,123.125,153.08333333333334,276.20833333333337
475,2009-09-24,64.83333333333333,182.625,247.45833333333331
475,2009-09-25,75.0,191.75,266.75
475,2009-09-26,0.0,249.66666666666666,249.66666666666666
475,2009-09-27,0.0,,0.0
475,2009-09-28,130.0,42.0,172.0
475,2009-09-29,206.625,43.083333333333336,249.70833333333334
475,2009-09-30,82.08333333333333,161.58333333333334,243.66666666666669
475,2009-10-01,0.0,252.95833333333334,252.95833333333334
475,2009-10-02,0.0,260.25,260.25
475,2009-10-03,0.0,260.125,260.125
475,2009-10-04,0.0,249.41666666666666,249.41666666666666
475,2009-10-05,76.0,186.5,262.5
475,2009-10-06,123.0,131.0,254.0
475,2009-10-07,94.95833333333333,156.70833333333334,251.66666666666669
475,2009-10-08,40.833333333333336,258.4583333333333,299.29166666666663
475,2009-10-09,0.0,258.9583333333333,258.9583333333333
475,2009-10-10,53.416666666666664,252.45833333333334,305.875
475,2009-10-11,32.958333333333336,249.08333333333334,282.0416666666667
475,2009-10-12,92.625,167.625,260.25
475,2009-10-13,114.95833333333333,146.58333333333334,261.5416666666667
475,2009-10-14,111.95833333333333,144.58333333333334,256.5416666666667
475,2009-10-15,160.20833333333334,92.66666666666667,252.875
475,2009-10-16,201.45833333333334,59.25,260.70833333333337
475,2009-10-17,205.29166666666666,42.875,248.16666666666666
475,2009-10-18,201.45833333333334,42.833333333333336,244.29166666666669
475,2009-10-19,213.29166666666666,42.458333333333336,255.75
475,2009-10-20,217.54166666666666,43.625,261.16666666666663
475,2009-10-21,169.33333333333334,87.0,256.33333333333337
475,2009-10-22,94.45833333333333,172.66666666666666,267.125
475,2009-10-23,116.70833333333333,143.45833333333334,260.1666666666667
475,2009-10-24,209.29166666666666,43.083333333333336,252.375
475,2009-10-25,208.08333333333334,43.166666666666664,251.25
475,2009-10-26,220.41666666666666,43.833333333333336,264.25
475,2009-10-27,207.16666666666666,43.25,250.41666666666666
475,2009-10-28,223.0,43.75,266.75
475,2009-10-29,196.625,43.958333333333336,240.58333333333334
475,2009-10-30,212.54166666666666,44.041666666666664,256.5833333333333
475,2009-10-31,204.08333333333334,43.291666666666664,247.375
475,2009-11-01,196.5,45.04347826086956,241.54347826086956
475,2009-11-02,150.0,111.33333333333333,261.3333333333333
475,2009-11-03,213.79166666666666,43.708333333333336,257.5
475,2009-11-04,204.45833333333334,43.583333333333336,248.04166666666669
475,2009-11-05,222.375,43.916666666666664,266.2916666666667
475,2009-11-06,204.75,38.625,243.375
475,2009-11-07,225.45833333333334,33.833333333333336,259.2916666666667
475,2009-11-08,220.95833333333334,33.416666666666664,254.375
475,2009-11-09,232.33333333333334,34.291666666666664,266.625
475,2009-11-10,66.29166666666667,137.06666666666666,203.35833333333335
475,2009-11-11,0.0,250.70833333333334,250.70833333333334
475,2009-11-12,152.25,100.125,252.375
475,2009-11-13,220.04166666666666,34.333333333333336,254.375
475,2009-11-14,224.04166666666666,33.791666666666664,257.8333333333333
475,2009-11-15,229.54166666666666,33.875,263.41666666666663
475,2009-11-16,229.45833333333334,34.208333333333336,263.6666666666667
475,2009-11-17,235.08333333333334,34.666666666666664,269.75
475,2009-11-18,228.54166666666666,33.291666666666664,261.8333333333333
475,2009-11-19,218.16666666666666,34.916666666666664,253.08333333333331
475,2009-11-20,222.58333333333334,32.583333333333336,255.16666666666669
475,2009-11-21,205.625,33.375,239.0
475,2009-11-22,215.66666666666666,33.333333333333336,249.0
475,2009-11-23,204.83333333333334,33.75,238.58333333333334
475,2009-11-24,226.91666666666666,33.5,260.41666666666663
475,2009-11-25,196.08333333333334,33.0,229.08333333333334
475,2009-11-26,207.45833333333334,31.25,238.70833333333334
475,2009-11-27,223.125,33.875,257.0
475,2009-11-28,215.79166666666666,33.5,249.29166666666666
475,2009-11-29,218.125,33.25,251.375
475,2009-11-30,194.41666666666666,54.958333333333336,249.375
475,2009-12-01,210.95833333333334,48.25,259.20833333333337
475,2009-12-02,2.25,272.0833333333333,274.3333333333333
475,2009-12-03,78.95833333333333,189.70833333333334,268.6666666666667
475,2009-12-04,232.625,34.833333333333336,267.4583333333333
475,2009-12-05,236.33333333333334,34.5,270.83333333333337
475,2009-12-06,227.125,34.583333333333336,261.7083333333333
475,2009-12-07,248.375,35.125,283.5
475,2009-12-08,227.54166666666666,52.75,280.29166666666663
475,2009-12-09,240.375,36.25,276.625
475,2009-12-10,252.58333333333334,36.0,288.58333333333337
475,2009-12-11,233.91666666666666,37.166666666666664,271.0833333333333
475,2009-12-12,249.875,35.5,285.375
475,2009-12-13,227.91666666666666,35.625,263.54166666666663
475,2009-12-14,151.0,123.16666666666667,274.1666666666667
475,2009-12-15,57.5,221.58333333333334,279.08333333333337
475,2009-12-16,47.291666666666664,241.91666666666666,289.2083333333333
475,2009-12-17,135.41666666666666,177.25,312.66666666666663
475,2009-12-18,124.125,195.83333333333334,319.95833333333337
475,2009-12-19,0.0,308.875,308.875
475,2009-12-20,0.0,292.5,292.5
475,2009-12-21,30.5,269.0,299.5
475,2009-12-22,2.2916666666666665,304.8333333333333,307.125
475,2009-12-23,34.125,279.9583333333333,314.0833333333333
475,2009-12-24,154.33333333333334,149.29166666666666,303.625
475,2009-12-25,20.583333333333332,261.4117647058824,281.9950980392157
475,2009-12-26,121.125,149.79166666666666,270.91666666666663
475,2009-12-27,238.20833333333334,33.125,271.33333333333337
475,2009-12-28,241.58333333333334,35.5,277.08333333333337
475,2009-12-29,232.0,40.666666666666664,272.6666666666667
475,2009-12-30,229.83333333333334,70.91666666666667,300.75
475,2009-12-31,201.29166666666666,37.375,238.66666666666666
475,2010-01-01,246.45833333333334,34.416666666666664,280.875
475,2010-01-02,242.16666666666666,35.833333333333336,278.0
475,2010-01-03,235.70833333333334,38.125,273.83333333333337
475,2010-01-04,210.79166666666666,40.708333333333336,251.5
475,2010-01-05,257.4166666666667,38.833333333333336,296.25
475,2010-01-06,235.95833333333334,55.375,291.33333333333337
475,2010-01-07,188.04166666666666,101.0,289.04166666666663
475,2010-01-08,149.25,143.66666666666666,292.91666666666663
475,2010-01-09,254.79166666666666,36.958333333333336,291.75
475,2010-01-10,242.54166666666666,36.666666666666664,279.2083333333333
475,2010-01-11,189.29166666666666,38.166666666666664,227.45833333333331
475,2010-01-12,231.875,49.291666666666664,281.1666666666667
475,2010-01-13,123.75,180.70833333333334,304.45833333333337
475,2010-01-14,1.75,277.0833333333333,278.8333333333333
475,2010-01-15,4.5,269.625,274.125
475,2010-01-16,0.0,265.5,265.5
475,2010-01-17,0.0,269.2083333333333,269.2083333333333
475,2010-01-18,0.0,137.41666666666666,137.41666666666666
475,2010-01-19,0.0,0.0,0.0
475,2010-01-20,0.0,0.0,0.0
475,2010-01-21,0.0,0.0,0.0
475,2010-01-22,0.0,53.958333333333336,53.958333333333336
475,2010-01-23,138.625,148.83333333333334,287.45833333333337
475,2010-01-24,254.75,35.291666666666664,290.0416666666667
475,2010-01-25,221.70833333333334,34.916666666666664,256.625
475,2010-01-26,241.5,34.708333333333336,276.2083333333333
475,2010-01-27,227.5,34.875,262.375
475,2010-01-28,232.58333333333334,36.083333333333336,268.6666666666667
475,2010-01-29,252.875,41.208333333333336,294.0833333333333
475,2010-01-30,273.4166666666667,40.0,313.4166666666667
475,2010-01-31,230.33333333333334,38.125,268.45833333333337
475,2010-02-01,230.41666666666666,36.958333333333336,267.375
475,2010-02-02,172.625,103.66666666666667,276.2916666666667
475,2010-02-03,219.58333333333334,34.958333333333336,254.54166666666669
475,2010-02-04,223.08333333333334,36.708333333333336,259.7916666666667
475,2010-02-05,237.5,36.875,274.375
475,2010-02-06,251.54166666666666,34.666666666666664,286.2083333333333
475,2010-02-07,250.04166666666666,36.416666666666664,286.4583333333333
475,2010-02-08,98.20833333333333,173.2608695652174,271.46920289855075
475,2010-02-09,80.5,150.25,230.75
475,2010-02-10,218.58333333333334,36.166666666666664,254.75
475,2010-02-11,258.125,36.291666666666664,294.4166666666667
475,2010-02-12,223.45833333333334,36.416666666666664,259.875
475,2010-02-13,244.625,35.416666666666664,280.0416666666667
475,2010-02-14,246.29166666666666,34.375,280.66666666666663
475,2010-02-15,256.75,35.166666666666664,291.9166666666667
475,2010-02-16,246.125,35.208333333333336,281.3333333333333
475,2010-02-17,192.58333333333334,90.0,282.58333333333337
475,2010-02-18,193.20833333333334,80.08333333333333,273.2916666666667
475,2010-02-19,237.375,35.208333333333336,272.5833333333333
475,2010-02-20,239.625,34.0,273.625
475,2010-02-21,244.79166666666666,34.166666666666664,278.9583333333333
475,2010-02-22,227.20833333333334,38.416666666666664,265.625
475,2010-02-23,232.5,34.375,266.875
475,2010-02-24,235.66666666666666,40.333333333333336,276.0
475,2010-02-25,224.16666666666666,33.875,258.04166666666663
475,2010-02-26,236.70833333333334,33.625,270.33333333333337
475,2010-02-27,211.16666666666666,33.791666666666664,244.95833333333331
475,2010-02-28,242.625,34.375,277.0
475,2010-03-01,230.08333333333334,34.5,264.58333333333337
475,2010-03-02,129.20833333333334,139.25,268.45833333333337
475,2010-03-03,233.45833333333334,34.208333333333336,267.6666666666667
475,2010-03-04,237.625,34.291666666666664,271.9166666666667
475,2010-03-05,236.29166666666666,34.333333333333336,270.625
475,2010-03-06,224.91666666666666,33.333333333333336,258.25
475,2010-03-07,218.58333333333334,33.0,251.58333333333334
475,2010-03-08,227.04166666666666,33.416666666666664,260.4583333333333
475,2010-03-09,213.45833333333334,33.208333333333336,246.66666666666669
475,2010-03-10,227.33333333333334,33.583333333333336,260.9166666666667
475,2010-03-11,222.29166666666666,32.875,255.16666666666666
475,2010-03-12,236.29166666666666,34.166666666666664,270.4583333333333
475,2010-03-13,240.54166666666666,34.125,274.66666666666663
475,2010-03-14,230.08333333333334,32.958333333333336,263.0416666666667
475,2010-03-15,215.95833333333334,33.375,249.33333333333334
475,2010-03-16,223.70833333333334,33.0,256.70833333333337
475,2010-03-17,213.58333333333334,32.375,245.95833333333334
475,2010-03-18,45.041666666666664,205.83333333333334,250.875
475,2010-03-19,0.0,249.91666666666666,249.91666666666666
475,2010-03-20,0.0,237.375,237.375
475,2010-03-21,0.0,240.125,240.125
475,2010-03-22,0.0,253.41666666666666,253.41666666666666
475,2010-03-23,0.0,260.2916666666667,260.2916666666667
475,2010-03-24,0.0,248.75,248.75
475,2010-03-25,0.0,263.9130434782609,263.9130434782609
475,2010-03-26,0.0,264.5833333333333,264.5833333333333
475,2010-03-27,0.0,246.25,246.25
475,2010-03-28,0.0,258.75,258.75
475,2010-03-29,59.333333333333336,197.91666666666666,257.25
475,2010-03-30,140.58333333333334,113.33333333333333,253.91666666666669
475,2010-03-31,0.0,259.1666666666667,259.1666666666667
475,2010-04-01,0.0,257.0833333333333,257.0833333333333
475,2010-04-02,0.0,287.9166666666667,287.9166666666667
475,2010-04-03,0.0,285.0,285.0
475,2010-04-04,0.0,250.41666666666666,250.41666666666666
475,2010-04-05,0.0,264.1666666666667,264.1666666666667
475,2010-04-06,0.0,257.5,257.5
475,2010-04-07,0.0,273.75,273.75
475,2010-04-08,0.0,274.1666666666667,274.1666666666667
475,2010-04-09,28.416666666666668,228.33333333333334,256.75
475,2010-04-10,0.0,213.33333333333334,213.33333333333334
475,2010-04-11,0.0,,0.0
475,2010-04-12,40.708333333333336,196.875,237.58333333333334
475,2010-04-13,41.791666666666664,218.75,260.5416666666667
475,2010-04-14,0.0,256.6666666666667,256.6666666666667
475,2010-04-15,60.958333333333336,196.66666666666666,257.625
475,2010-04-16,51.375,207.08333333333334,258.45833333333337
475,2010-04-17,0.0,260.0,260.0
475,2010-04-18,0.0,265.4166666666667,265.4166666666667
475,2010-04-19,102.45833333333333,165.0,267.4583333333333
475,2010-04-20,11.666666666666666,247.91666666666666,259.5833333333333